[[{"header":{"parameterUnit":"m.s-1","parameterCategory":1,"la1":30.2992,"la2":30.254,"lo1":-89.0895,"lo2":-89.0443,"dy":0.0025,"dx":0.0025,"nx":19,"ny":19,"refTime":"2026-04-15T21:00:00:Z","depth":0,"parameterNumber":2,"parameterNumberName":"U-component_of_WINDS"},"data":[0,0,0,-0.1369,-0.1368,-0.1299,-0.1299,-0.1218,-0.1217,0,0,0,0,0,0,0,0,0,0,0,-0.1392,-0.1392,-0.1369,-0.1368,-0.1299,-0.1299,-0.1218,-0.1217,0,0,0,0,0,0,0,0,0,0,0,-0.1393,-0.1392,-0.1391,-0.1368,-0.1299,-0.1299,-0.1218,-0.1268,0,0,0,0,0,0,0,0,0,0,-0.1333,-0.1357,-0.1392,-0.1391,-0.1367,-0.1299,-0.1299,-0.127,-0.1265,-0.1252,0,-0.1239,0,-0.1227,-0.1212,-0.1212,0,0,0,-0.1366,-0.1361,-0.1341,-0.1391,-0.1367,-0.13,-0.133,-0.1267,-0.1261,-0.1244,-0.1238,-0.1235,-0.1226,-0.1212,-0.1211,-0.1139,-0.1139,0,0,-0.137,-0.1382,-0.1345,-0.1337,-0.1346,-0.1332,-0.1328,-0.1263,-0.1258,-0.1238,-0.1233,-0.1224,-0.1211,-0.1211,-0.1139,-0.1139,0,0,0,-0.1382,-0.1384,-0.1365,-0.134,-0.1327,-0.133,-0.1325,-0.1261,-0.1253,-0.1232,-0.1223,-0.1211,-0.121,-0.1139,-0.1139,-0.1138,0,0,0,-0.1384,-0.1391,-0.1367,-0.1373,-0.1329,-0.1293,-0.1324,-0.1258,-0.125,-0.1224,-0.1211,-0.1209,-0.114,-0.1139,-0.1139,-0.1136,0,0,0,-0.1396,-0.1393,-0.1384,-0.1374,-0.1345,-0.1293,-0.1282,-0.1256,-0.1245,-0.1212,-0.1209,-0.114,-0.1139,-0.1139,-0.1137,-0.1121,0,0,0,-0.1412,-0.1384,-0.1384,-0.1349,-0.1345,-0.1293,-0.1283,-0.1243,-0.1215,-0.121,-0.114,-0.1139,-0.1139,-0.1137,-0.1121,-0.1109,-0.1105,0,0,-0.1383,-0.138,-0.1359,-0.1357,-0.1308,-0.1303,-0.1254,-0.1217,-0.1203,-0.1162,-0.116,-0.1139,-0.1137,-0.1121,-0.1079,-0.1076,0,0,0,-0.1354,-0.1338,-0.1323,-0.1296,-0.1267,-0.1243,-0.1212,-0.1199,-0.1163,-0.1184,-0.1128,-0.1126,-0.1117,-0.111,-0.1108,-0.1099,-0.1137,-0.1137,-0.1137,-0.1329,-0.1313,-0.1277,-0.1253,-0.1228,-0.1197,-0.1175,-0.1152,-0.1143,-0.1131,-0.1118,-0.1095,-0.1088,-0.1086,-0.1077,-0.1111,-0.1111,-0.1111,-0.1111,-0.1285,-0.1261,-0.1251,-0.1212,-0.1196,-0.1164,-0.1134,-0.1129,-0.1097,-0.1102,-0.1093,-0.11,-0.1083,-0.1074,-0.111,-0.111,-0.111,-0.111,-0.111,-0.1267,-0.1253,-0.1237,-0.1198,-0.117,-0.1147,-0.1117,-0.1104,-0.1091,-0.1082,-0.1068,-0.1068,-0.1066,-0.1076,-0.1076,-0.1076,-0.1076,-0.1076,-0.1076,-0.1254,-0.1236,-0.1212,-0.118,-0.1162,-0.1137,-0.1107,-0.1089,-0.1066,-0.1059,-0.1059,-0.1052,-0.1084,-0.1092,-0.1074,-0.1075,-0.1075,-0.1075,-0.1075,-0.1215,-0.1222,-0.1185,-0.1167,-0.1129,-0.1103,-0.1087,-0.1052,-0.1035,-0.1021,-0.1017,-0.1043,-0.1039,-0.1041,-0.1048,-0.102,-0.102,-0.102,-0.102,-0.12,-0.1197,-0.1157,-0.113,-0.1101,-0.1083,-0.1043,-0.102,-0.0998,-0.0987,-0.0989,-0.0998,-0.1,-0.0995,-0.0998,-0.1005,-0.0966,-0.0966,-0.0966,-0.1176,-0.117,-0.1138,-0.1116,-0.1085,-0.106,-0.1023,-0.0993,-0.0969,-0.0963,-0.0979,-0.0981,-0.0994,-0.0999,-0.0993,-0.0998,-0.1009,0,0]},{"header":{"parameterUnit":"m.s-1","parameterCategory":1,"la1":30.2992,"la2":30.254,"lo1":-89.0895,"lo2":-89.0443,"dy":0.0025,"dx":0.0025,"nx":19,"ny":19,"refTime":"2026-04-15T21:00:00:Z","depth":0,"parameterNumber":3,"parameterNumberName":"V-component_of_WINDS"},"data":[0,0,0,2.2527,2.2529,2.2656,2.2657,2.2817,2.2819,0,0,0,0,0,0,0,0,0,0,0,2.249,2.2491,2.2526,2.253,2.2656,2.2657,2.2817,2.2819,0,0,0,0,0,0,0,0,0,0,0,2.2489,2.2491,2.2492,2.253,2.2656,2.2657,2.2817,2.2721,0,0,0,0,0,0,0,0,0,0,2.2598,2.2565,2.249,2.2492,2.2531,2.2656,2.2657,2.2717,2.2727,2.276,0,2.279,0,2.2807,2.2829,2.283,0,0,0,2.2529,2.2557,2.259,2.2492,2.2532,2.2656,2.2599,2.2722,2.2734,2.2774,2.2793,2.2799,2.281,2.2831,2.2831,2.3026,2.3027,0,0,2.2521,2.2513,2.2582,2.2598,2.258,2.2595,2.2603,2.273,2.2749,2.2793,2.2802,2.2813,2.2832,2.2833,2.3025,2.3026,0,0,0,2.2502,2.2508,2.2538,2.2591,2.2615,2.2598,2.2608,2.2743,2.2754,2.2804,2.2814,2.2833,2.2835,2.3024,2.3026,2.3064,0,0,0,2.2498,2.2496,2.2535,2.2531,2.2612,2.2681,2.2619,2.2745,2.276,2.2814,2.2833,2.2836,2.3023,2.3025,2.3061,2.3084,0,0,0,2.2481,2.2494,2.2513,2.253,2.2585,2.2679,2.2697,2.2749,2.2767,2.283,2.2837,2.3022,2.3025,2.3058,2.3079,2.3132,0,0,0,2.246,2.2546,2.2514,2.2613,2.2584,2.2703,2.2697,2.2785,2.2845,2.2833,2.3023,2.3025,2.3057,2.3076,2.3129,2.3174,2.3193,0,0,2.2563,2.2558,2.2617,2.2592,2.2715,2.2684,2.2812,2.2874,2.2888,2.2979,2.2983,2.3062,2.3079,2.3131,2.3301,2.3316,0,0,0,2.2646,2.2688,2.2723,2.2779,2.283,2.2874,2.2918,2.2941,2.3018,2.2933,2.3096,2.3106,2.3137,2.316,2.3172,2.3199,2.3036,2.3035,2.3035,2.2778,2.2791,2.2889,2.2918,2.2973,2.3017,2.3062,2.31,2.3098,2.3136,2.3163,2.3264,2.329,2.3299,2.3327,2.3188,2.3189,2.3189,2.3189,2.2928,2.299,2.2984,2.3077,2.3091,2.3168,2.3214,2.3209,2.3282,2.3245,2.3273,2.3231,2.3315,2.334,2.3192,2.3191,2.3191,2.3191,2.3191,2.3015,2.3047,2.3074,2.3157,2.3219,2.3245,2.3316,2.3325,2.3334,2.3362,2.3391,2.339,2.339,2.3376,2.3376,2.3376,2.3377,2.3377,2.3377,2.3094,2.3124,2.3183,2.3244,2.3281,2.3331,2.3376,2.3412,2.3455,2.3456,2.3456,2.3449,2.3321,2.3289,2.3383,2.3382,2.3381,2.338,2.338,2.3241,2.3209,2.3301,2.3338,2.3409,2.3469,2.3481,2.3554,2.3586,2.362,2.3607,2.3512,2.3506,2.3497,2.3469,2.3605,2.3605,2.3605,2.3605,2.3313,2.3312,2.3407,2.3466,2.3525,2.3545,2.3646,2.3682,2.3713,2.3733,2.3715,2.368,2.367,2.367,2.3657,2.3632,2.3805,2.3805,2.3805,2.3403,2.3408,2.3493,2.3525,2.3581,2.3628,2.3724,2.379,2.382,2.3814,2.3748,2.374,2.3684,2.3665,2.3657,2.3636,2.3589,0,0]}]]